Showing default

TIANHUI 5B, 58201

Orbit data source: Space-Track

TIANHUI 5B, 58201 is a payload satellite owned by G. Cehui dili (CN) in SSO that was launched on Tue, 31 Oct 2023 UTC via a CHANG ZHENG 6A launch vehicle from the Taiyaun Space Center, China (TSC). Payload-class satellites include a variety of spacecraft equipped with specific instruments for various scientific and technological missions. These include communications satellites like Starlink; space stations such as the ISS; scientific satellites like the Hubble; Earth observation satellites from companies like Planet Labs, Umbra, and HawkEye 360; GPS; miniature CubeSats for education and research; and military/defense satellites.

Loading next visibility...
Identifier
58201, 2023-168C
Orbit
SSO
Country
Flag of CNCN / PRC
Related business
Manufacturer
DFH
Mission
Operational Civil Radar Imaging
Bus & Motor
CAST-2000?, Unknown motor
Mass
~1,000 kg wet, ~1,000 kg dry
Launch date (UTC)
2023-10-31 (3 years ago)
Launch vehicle
CHANG ZHENG 6A
Launch site
Taiyaun Space Center, China (TSC)
Object type
Payload
Rocket body
Debris
Shape & HBR
Box + 2 Pan, 7.0 m
Radar Cross Section
12.451 m², Large (>1 m²)

Expand to show TLE details & history
Last TLE update: 3 days ago

TLE from 3 days ago
0 TIANHUI 5B
1 58201U 23168C   26170.49809292  .00000277  00000-0  36508-4 0  9997
2 58201  97.8209 177.8423 0002104  95.1279 265.0177 14.87578083142944
Epoch: 2026-06-19T11:57Z
TLE epoch observation values (Epoch: 2026-06-19T11:57:15.228Z)
Latitude
-0.00006°
Longitude
90.80265°
Altitude
608.668 km
Speed
7.555 km/s
True Right ascension
11h 51m 22s
True Declination
0° 00' 00"
Sunlit
Object was in daylight at epoch
Visualization orbit readout
Latitude
Unknown
Longitude
Unknown
Altitude
Unknown
Speed
Unknown
Apparent Right ascension
Unknown
Apparent Declination
Unknown
Sunlit
N/A
Visualization observer readout
Local Sidereal Time
21:35:50
Azimuth
Unknown
Elevation
Unknown
Doppler factor
Unknown
Orbital elements
Apogee altitude
604.001 km
Perigee altitude
601.064 km
Semi-major axis
6,980.67 km
Eccentricity
0.00021
Inclination
97.8209°
RAAN
177.8423°
Arg. of periapsis
95.1279°
True anomaly
264.99368°
Mean anomaly
265.0177°
Eccentric anomaly
265.00569°
Mean motion
3.72132 °/min
Orbital period
96.74 mins
BSTAR
0.000036508
Loading maneuver chart data...
Computing Atmospheric mass density...
Loading historical data...
Loading historical data...
Loading historical data...
Loading historical data...
Loading historical data...
Loading historical data...
Loading historical data...
Other satellites on launch #168 in the year 2023 (2023-10-31 UTC)

Documentation

Showing up to 5 results
|